Regional Weather Roundup
Issued by NWS

Home | Current Version | Previous Version | Graphics & Text | Print | Product List | Glossary On
Versions: 1 2 3 4 5 6 7 8 9 10 11 12 13 14 15 16 17 18 19 20 21 22 23 24 25 26 27 28 29 30 31 32 33 34 35 36 37 38 39 40 41 42 43 44 45 46 47 48 49 50
000
ASUS43 KLOT 291903
RWRIL

ILLINOIS REGIONAL WEATHER ROUNDUP
NATIONAL WEATHER SERVICE CHICAGO/ROMEOVILLE IL
200 PM CDT FRI JUL 29 2016

NOTE: "FAIR" INDICATES FEW OR NO CLOUDS BELOW 12,000 FEET WITH NO
SIGNIFICANT WEATHER AND/OR OBSTRUCTIONS TO VISIBILITY.

* THESE STATIONS ARE NOT UNDER NWS QUALITY CONTROL. THEY ALSO MAY NOT
  REPORT WEATHER SUCH AS PRECIPITATION OR FOG.

ILZ001-002-007-009-015-016-024-292000-
NORTHWEST ILLINOIS

CITY           SKY/WX    TMP DP  RH WIND       PRES   REMARKS
MOLINE         PTSUNNY   80  69  69 W7        29.93S HX  83
STERLING*      MOSUNNY   80  70  71 VRB5      29.92F HX  83
SAVANNA*       PTSUNNY   76  68  77 N7        29.94S
$$

ILZ003-004-008-010-011-017-018-292000-
NORTH CENTRAL ILLINOIS

CITY           SKY/WX    TMP DP  RH WIND       PRES   REMARKS
ROCKFORD       TSTM      76  69  79 N8        29.94S
FREEPORT*      TSTM      68  65  91 NE12      29.96S VSB 1
ROCHELLE*      CLOUDY    77  71  82 W5        29.92F
DE KALB*       TSTM     N/A N/A N/A N9        29.93S
$$

ILZ005-006-012>014-019>023-292000-
NORTHEAST ILLINOIS

CITY           SKY/WX    TMP DP  RH WIND       PRES   REMARKS
CHICAGO-OHARE  PTSUNNY   76  68  76 NE13      29.89F
CHICAGO-MIDWAY CLOUDY    77  70  79 E13       29.90F THUNDER
AURORA         PTSUNNY   81  72  74 W6        29.91S THUNDER HX  85
LANSING*       LGT RAIN  70  67  90 E6        29.91F
WAUKEGAN       PTSUNNY   77  69  76 NE13      29.92F
DUPAGE AIRPORT TSTM      77  68  73 NE16      29.90S
KANKAKEE*      MOSUNNY   85  73  66 SW7       29.90F HX  91
WHEELING       MOSUNNY   77  68  73 NE13G22   29.92F
MORRIS*        MOSUNNY   82  71  68 W5        29.88F HX  87
NORTHERLY ISL    N/A     75  69  81 NE12        N/A
$$

LMZ740>746-292000-
SOUTHERN LAKE MICHIGAN

STATION/POSITION SKY/WX   TEMP    WIND        PRES    VSBY  WAVE
                          AIR SEA DIR/SP/G                  HT/PER
                          (F)     (DEG/KT/KT) (MB)    (MI)  (FT/S)
SOUTHERN BUOY              72 74   80/ 14/ 17 1013.7          3/ 4
WILMETTE HARBOR            73 73   70/  8/ 12   N/A           3/ 6
HARRISON CRIB              74      30/ 10/ 10   N/A
BURNHAM HARBOR             75      40/  8/ 11   N/A
CALUMET HARBOR             74     360/ 10/ 11 1012.9F
BURNS HARBOR               76      50/  9/ 12 1013.2F
MICHIGAN CITY              76     360/ 12/ 13   N/A
MICHIGAN CITY 6N           76 78   30/  8/ 12   N/A           2/ 5
ST. JOSEPH                 78 77   40/  8/ 10 1013.0F         2
$$

ILZ025>027-034>036-040-047-049-050-058-095>099-292000-
WEST-CENTRAL ILLINOIS

CITY           SKY/WX    TMP DP  RH WIND       PRES   REMARKS
QUINCY         MOSUNNY   80  68  66 W12       29.96F HX  83
MACOMB*        CLOUDY    76  67  75 NW9G16    29.98F
JACKSONVILLE*  PTSUNNY   81  69  66 W8        29.94F HX  83
PITTSFIELD*    MOSUNNY   80  68  67 NW6       29.96F HX  82
$$

ILZ028>032-037-038-041>044-048-051>054-059>061-292000-
CENTRAL ILLINOIS

CITY           SKY/WX    TMP DP  RH WIND       PRES   REMARKS
PONTIAC        PTSUNNY   83  74  75 W10       29.93S HX  89
BLOOMINGTON    PTSUNNY   80  67  64 W7        29.94F HX  82
DECATUR        PTSUNNY   83  67  58 W9        29.94F HX  85
PEORIA         MOSUNNY   80  68  66 W6        29.94F HX  83
LACON*         MOSUNNY   79  67  65 SW6       29.92F HX  81
LINCOLN*       PTSUNNY   83  70  65 W5        29.94S HX  86
SPRINGFIELD    PTSUNNY   81  68  64 W8        29.95S HX  84
TAYLORVILLE    CLOUDY    78  69  71 MISG      29.95S HX  81
$$

ILZ033-039-045-046-055>057-062-063-292000-
EAST-CENTRAL ILLINOIS

CITY           SKY/WX    TMP DP  RH WIND       PRES   REMARKS
CHAMPAIGN      PTSUNNY   81  70  69 W10       29.93F HX  84
MATTOON        PTSUNNY   82  69  64 W13       29.92F HX  85
PARIS*         PTSUNNY   84  74  72 NW5       29.91F HX  91
$$

ILZ079-100>102-292000-
SOUTHWEST ILLINOIS

CITY           SKY/WX    TMP DP  RH WIND       PRES   REMARKS
ALTON          PTSUNNY   81  68  65 NW12      29.94F HX  83
BELLEVILLE     CLOUDY    85  70  60 N7        29.92F HX  89
CAHOKIA*       CLOUDY    86  66  51 NW9       29.93F HX  88
SPARTA*        CLOUDY    83  71  68 NW8       29.94F HX  87
$$

ILZ064>066-069>071-074>076-080>082-084>086-088>090-092>094-292000-
SOUTH-CENTRAL ILLINOIS

CITY           SKY/WX    TMP DP  RH WIND       PRES   REMARKS
CARBONDALE     PTSUNNY   83  72  69 N8        29.92F HX  88
CAIRO*         SUNNY     84  77  78 SW5       29.92F HX  94
EFFINGHAM*     CLOUDY    84  72  66 W10       29.94F HX  89
MARION         PTSUNNY   79  68  69 NW8       29.94F HX  81
MT. VERNON     CLOUDY    75  68  78 CALM      29.94F
CENTRALIA*     CLOUDY    83  72  69 NW8       29.93S HX  87
SALEM*         MOSUNNY   82  71  69 N7        29.93S HX  87
METROPOLIS*    PTSUNNY   84  75  74 SW5       29.93F HX  93
$$

ILZ067-068-072-073-078-083-087-091-292000-
SOUTHEAST ILLINOIS

CITY           SKY/WX    TMP DP  RH WIND       PRES   REMARKS
LAWRENCEVILLE  CLOUDY    85  74  69 SW7       29.91F HX  92
FLORA*         PTSUNNY   84  72  66 NW9       29.92S HX  90
FAIRFIELD*     CLOUDY    74  72  94 CALM      29.92R
HARRISBURG*    CLOUDY    73  69  86 S7        29.94R
ROBINSON*      PTSUNNY   79  69  72 N12       29.92S HX  82
CARMI*         CLOUDY    85  75  72 CALM      29.90F HX  92
$$

ABBREVIATIONS USED IN REMARKS
   TC - TEMPERATURE IN CELSIUS
  WCI - WIND CHILL INDEX
   HX - HEAT INDEX
  VSB - VISIBILITY
$$




USA.gov is the U.S. government's official web portal to all federal, state and local government web resources and services.